Find Cartosat-2 Series Satellite

NORAD ID: 43111 Int'l Des: 2018-004 Owner: ISRO Country: IN operational
LEOCIRCULARRETROGRADESSO

Live Position

Loading 3D Globe...

About Cartosat-2 Series Satellite

Description loading...

Upcoming Passes

Passes for default location (London). Set your location on the main map for personalized predictions.

Altitude History

Loading altitude history...

Two-Line Element Set

1 43111U 18004A 26105.83499604 .00002305 00000-0 11236-3 0 9996
2 43111 97.4097 166.3092 0002512 116.5989 243.5504 15.19313584457867
Epoch: Apr 15, 2026 • Age: 6 hours

Current Status

Altitude 514.0 km
Velocity 7.61 km/s
Sub-Earth Point -10.60°S, 71.03°W
Launch Date Jan 12, 2018
Age 8.2 years
Type other

Technical Details

Classification Payload
Mass 712.00 kg
Dry Mass 639.00 kg
Total Mass 712.00 kg
Length 3.50 m
Diameter 2.00 m
Span 8.00 m
Shape Hex Cyl + 2 Pan
Manufacturer ISRO
Bus Type IRS-2
Phase Status In Orbit
Owner/State ISRO/IN

Most Searched